Regional Weather Roundup
Issued by NWS

Home | Current Version | Previous Version | Graphics & Text | Print | Product List | Glossary On
Versions: 1 2 3 4 5 6 7 8 9 10 11 12 13 14 15 16 17 18 19 20 21 22 23 24 25 26 27 28 29 30 31 32 33 34 35 36 37 38 39 40 41 42 43 44 45 46 47 48 49 50
188
ASUS45 KBOU 281207
RWRCO

WEATHER ROUNDUP FOR COLORADO
NATIONAL WEATHER SERVICE DENVER/BOULDER CO
600 AM MDT SUN MAY 28 2017

NOTE: "FAIR" INDICATES FEW OR NO CLOUDS BELOW 12000 FEET WITH NO
SIGNIFICANT WEATHER AND/OR OBSTRUCTIONS TO VISIBILITY.

COZ001>005-013-030-031-281300-
...NORTHWEST COLORADO...

CITY           SKY/WX    TMP DP  RH WIND       PRES   REMARKS
CRAIG          FAIR      29  26  89 SW3       30.35R
HAYDEN         FAIR      34  28  80 E9        30.35R WCI  26
MEEKER         FAIR      31  28  89 NE3       30.35R
RABBIT EARS PA NOT AVBL
STEAMBOAT SPGS NOT AVBL
WALDEN         NOT AVBL
$$

COZ006>008-011-281300-
...WEST CENTRAL VALLEYS...

CITY           SKY/WX    TMP DP  RH WIND       PRES   REMARKS
GRAND JUNCTION FAIR      46  33  60 SW9       30.26R
MONTROSE       FAIR      38  30  73 SE12      30.33R
EAGLE          FAIR      29  27  92 CALM      30.42R
RIFLE          FAIR      37  28  70 CALM      30.33R
DELTA          FAIR      43  28  54 E5        30.31R
NUCLA          FAIR      41  27  56 E8        30.32R
$$

COZ017>023-064>068-281300-
...SOUTHWEST COLORADO...

CITY           SKY/WX    TMP DP  RH WIND       PRES   REMARKS
DURANGO        FAIR      33  22  63 CALM      30.27R
CORTEZ         FAIR      33  28  81 CALM      30.26R
PAGOSA SPRINGS FAIR      36  18  48 N3        30.31S
TELLURIDE      FAIR      33  20  59 CALM      30.39S
WOLF CREEK PAS NOT AVBL
$$

COZ009-010-012-014-032>034-037-058>063-281300-
...CENTRAL COLORADO...

CITY           SKY/WX    TMP DP  RH WIND       PRES   REMARKS
ASPEN          FAIR      30  26  85 SW7       30.37R WCI  23
BUENA VISTA    FAIR      33  26  74 NW8       30.38S WCI  26
COPPER MTN     NOT AVBL
BERTHOUD PASS  NOT AVBL
COTTONWOOD PAS NOT AVBL
GUNNISON       FAIR      29  23  78 N3        30.40R
KREMMLING      NOT AVBL
LEADVILLE      FAIR      19  16  88 NE6       30.41S WCI  11
SALIDA         FAIR      33  26  76 W3        30.46R
SUNLIGHT       NOT AVBL
WILKERSON PASS NOT AVBL
$$

COZ069>075-281300-
...SAN LUIS VALLEY/SANGRE DE CRISTO MOUNTAINS...

CITY           SKY/WX    TMP DP  RH WIND       PRES   REMARKS
ALAMOSA        FAIR      31  28  89 W5        30.34R WCI  26
DEL NORTE      NOT AVBL
LA VETA PASS   NOT AVBL
SAGUACHE       NOT AVBL
$$

COZ035-036-038>040-281300-
...NORTHERN COLORADO FRONT RANGE...

CITY           SKY/WX    TMP DP  RH WIND       PRES   REMARKS
DENVER INTL AP FAIR      42  35  76 SW10      30.26R
DMNS CITY PARK   N/A     44  34  70 SE7       30.26S
AURORA         PTCLDY    42  35  75 SW8       30.27R
FRONT RANGE AP NOT AVBL
ERIE MUNI ARPT NOT AVBL
BOULDER MUN AP NOT AVBL
CENTENNIAL     FAIR      42  34  73 SW7       30.28R
BROOMFIELD     CLEAR     45  32  61 W8        30.27
FORT COLLINS   FAIR      45  39  79 CALM      30.24S
LONGMONT       NOT AVBL
$$

COZ041-046-047-076>085-087-088-281300-
...PIKES PEAK/PALMER DIVIDE AND SOUTHERN FOOTHILLS...

CITY           SKY/WX    TMP DP  RH WIND       PRES   REMARKS
COLO. SPRINGS  FAIR      45  33  63 NW10      30.30R
A. F. ACADEMY  FAIR      34  32  91 N5        30.30R WCI  30
SCHRIEVER AFB  FAIR      46  31  56 NW18      30.30R
CHEYENNE MTN   FAIR      48  21  34 NW7       30.26R
ELLICOTT       FAIR     N/A N/A N/A N5        30.28R
FALCON         FAIR      41  30  65 NW7       30.32R
FORT CARSON    FAIR      40  32  74 N3        30.28R
LIMON          FAIR      37  36  96 NW3       30.25R
MONUMENT HILL  NOT AVBL
CANON CITY     NOT AVBL
WALSENBURG     FAIR      45  41  87 SW14      30.30R
TRINIDAD       FAIR      41  36  82 W10       30.29R
$$

COZ042>045-048>051-090-091-281300-
...NORTHEAST COLORADO...

CITY           SKY/WX    TMP DP  RH WIND       PRES   REMARKS
GREELEY ARPT   FAIR      39  37  92 SW6       30.24R
AKRON          FAIR      43  39  86 W14       30.20R
BURLINGTON     FAIR      46  41  82 W10       30.17R
WRAY           FAIR      46  43  87 W8        30.15R
YUMA           NOT AVBL
STERLING       NOT AVBL
HOLYOKE        NOT AVBL
FORT MORGAN    FAIR      39  37  94 W9        30.22R
$$

COZ086-089-092>099-281300-
...SOUTHEAST COLORADO...

CITY           SKY/WX    TMP DP  RH WIND       PRES   REMARKS
PUEBLO         FAIR      45  40  82 W8        30.25R
LA JUNTA       FAIR      47  44  90 W12       30.23R
LAMAR          FAIR      45  41  86 SW7       30.18R
SPRINGFIELD      N/A     47  45  93 NW14      30.21R
$$




USA.gov is the U.S. government's official web portal to all federal, state and local government web resources and services.